RH
12 15 18 15 16 16 18 14 14 12 17 14 16 15 27 31 29 38 41 41 40 47 46 47 47 54 59 61 62 64 69 64 66 68 74 76 69 71 73 71 66 70 71 68
16 18 13 12 12 14 12 12 12 13 14 14 16 18 18 29 29 33 40 40 40 42 48 48 49 51 56 60 63 65 62 64 65 69 69 66 65 65 67 70 68 67 69 66
18 15 11 12 12 10 10 11 12 12 12 13 14 22 28 23 28 28 34 36 37 40 42 43 46 49 57 63 63 62 64 63 67 64 63 66 68 68 72 68 65 64 64 64
17 13 12 11 8 10 11 9 12 14 17 20 15 26 24 18 20 26 31 37 37 38 38 38 43 52 55 60 62 61 61 60 61 61 64 65 65 72 68 66 65 63 68 66
16 12 11 9 8 8 10 9 12 16 22 23 20 24 24 23 17 20 24 34 35 35 39 38 43 51 53 56 63 62 62 62 62 60 64 64 64 65 64 66 66 64 67 67
15 10 8 9 7 8 8 10 19 36 42 39 27 28 30 26 18 18 17 20 33 35 38 36 36 45 51 53 62 68 62 60 60 59 65 63 63 66 69 66 67 64 62 65
16 13 8 7 9 10 11 19 26 36 50 41 42 30 27 20 17 30 49 41 36 34 38 39 41 43 53 57 63 70 67 68 62 61 64 66 62 63 65 64 62 63 64 64
21 26 11 8 10 12 13 17 26 24 47 37 30 28 29 40 41 42 41 43 47 57 65 59 42 40 49 57 63 69 74 74 69 66 65 65 65 65 67 64 62 62 64 66
25 22 14 10 10 11 12 18 17 22 29 31 33 30 21 37 45 47 46 48 54 66 79 83 72 43 52 55 62 65 72 77 73 66 68 66 68 66 70 68 63 64 66 64
18 20 17 16 10 12 12 13 20 29 25 34 40 36 33 50 60 51 50 48 66 76 63 74 74 74 54 51 54 68 73 82 84 81 71 70 68 65 69 68 70 63 61 65
19 20 19 18 18 18 17 19 21 29 34 40 46 47 40 56 62 59 55 61 66 60 61 68 72 77 67 52 49 62 71 72 79 84 86 87 76 73 71 69 68 68 66 64
19 25 23 17 15 11 13 14 26 36 28 32 44 46 34 56 60 73 80 63 75 70 62 64 72 77 70 63 59 85 44 77 75 70 72 85 69 83 82 80 76 77 74 71
19 25 25 20 17 16 16 14 12 23 34 25 53 54 43 62 84 79 78 77 72 69 66 65 72 81 73 74 71 74 66 63 50 33 51 50 87 65 84 85 82 80 79 75
29 24 23 25 19 20 18 16 14 16 20 20 35 70 71 76 78 72 68 64 67 64 63 61 70 71 60 56 66 77 68 69 67 39 34 67 80 64 68 70 79 80 79 78
17 20 22 23 21 19 18 18 17 15 14 14 38 71 63 60 70 72 74 71 54 56 54 54 60 61 54 46 47 50 56 62 72 73 79 86 79 63 65 62 66 63 77 77
22 24 25 26 23 26 23 20 19 19 30 55 54 58 50 47 40 49 54 52 52 50 47 46 46 50 50 44 37 36 47 45 46 52 70 73 73 83 69 70 65 67 65 73
22 27 32 30 28 28 28 31 26 33 32 48 57 49 40 39 34 45 54 51 50 46 43 44 45 43 42 42 38 37 39 40 40 48 51 68 79 77 75 86 71 78 82 76
25 34 38 34 31 36 28 26 32 37 38 39 41 40 37 34 31 52 45 41 38 39 39 41 41 40 36 34 34 36 33 34 37 44 44 58 67 75 76 76 77 85 84 78
21 38 37 36 45 31 34 30 28 33 41 35 41 41 40 36 46 48 45 42 45 46 43 42 41 42 41 40 41 41 39 36 40 39 44 47 60 60 58 71 79 80 82 90
35 33 31 44 36 39 38 32 30 25 53 39 47 51 51 50 65 61 50 47 47 44 42 42 42 43 43 42 41 42 45 50 48 46 47 48 58 60 55 53 70 84 66 66
42 46 37 46 41 46 35 29 29 36 44 42 45 46 46 51 58 52 51 49 47 47 45 44 43 45 45 44 45 49 49 50 44 45 46 53 55 60 57 53 56 63 79 67
36 48 52 45 43 47 31 32 36 48 45 47 43 40 40 42 44 46 49 50 48 48 44 43 47 47 46 49 52 53 54 50 54 54 52 51 51 59 54 60 60 58 70 83
43 39 43 39 47 39 37 42 44 47 50 45 44 42 43 46 48 50 54 57 55 50 49 45 51 54 52 53 50 56 52 55 57 60 60 60 58 54 56 61 64 65 71 90
39 34 43 37 41 51 49 46 42 39 39 38 40 44 45 50 53 58 60 62 62 53 53 50 54 61 61 53 54 58 62 61 66 67 70 67 65 64 56 57 62 65 78 98
40 36 41 57 54 46 50 46 41 41 42 43 46 47 49 54 56 60 64 66 61 59 56 55 61 64 65 62 64 64 67 68 71 74 78 76 74 73 68 64 66 60 60 80
47 44 59 74 57 57 55 46 42 46 48 49 51 54 52 55 63 64 64 56 58 62 59 65 67 67 67 70 73 73 76 76 76 83 85 83 80 75 69 65 65 62 60 58
Wind_Speed
3 2 8 13 8 8 7 2 2 3 7 6 7 6 8 12 8 11 12 15 14 15 19 29 29 28 30 33 36 37 36 33 32 29 27 23 20 17 18 16 17 18 20 18
5 6 15 6 8 8 1 2 4 5 4 3 3 7 9 11 15 12 16 16 16 10 14 20 26 27 31 35 36 35 38 36 35 33 32 25 21 21 19 19 22 15 18 19
6 13 7 7 8 2 2 2 6 6 3 3 1 9 7 6 10 8 17 20 16 18 17 16 21 29 31 33 36 38 40 39 38 34 27 18 20 20 20 19 22 19 21 20
7 12 9 8 1 4 2 4 8 5 3 2 4 5 7 4 7 13 12 15 16 16 14 15 18 25 31 34 37 39 40 40 38 34 29 24 26 20 23 22 22 19 22 20
9 8 7 3 5 5 8 6 3 2 2 2 2 4 7 3 3 5 9 15 17 18 18 18 17 30 30 31 33 35 39 39 38 35 31 27 26 23 23 24 23 23 21 23
9 6 3 7 3 4 5 3 8 6 4 3 1 5 5 3 5 4 4 14 19 18 17 18 22 24 27 29 30 35 40 39 38 36 32 29 30 24 23 25 25 28 27 26
6 8 4 2 1 6 4 7 4 4 5 5 1 4 6 5 3 17 22 22 8 11 17 14 11 15 22 28 29 31 36 36 39 37 36 31 29 29 26 26 27 27 27 28
2 7 7 4 7 7 4 8 5 2 3 5 4 4 8 14 15 15 20 22 27 24 16 13 2 12 22 25 30 33 33 33 37 38 38 34 30 30 30 29 28 29 30 30
3 7 6 3 4 8 2 0 6 4 1 3 2 4 2 12 14 13 14 16 23 21 23 25 32 15 8 20 26 33 33 33 37 41 39 36 33 34 31 32 30 31 28 28
3 3 3 6 3 5 1 4 3 4 1 2 3 1 2 5 6 8 11 12 17 13 18 11 14 16 17 5 15 19 19 22 30 32 38 37 35 37 33 30 30 30 33 28
3 3 6 5 5 5 7 7 5 4 5 5 3 4 3 6 7 10 7 4 11 10 9 6 14 24 22 4 22 23 26 25 21 23 22 26 35 36 37 35 33 32 30 31
2 4 1 7 5 2 6 3 4 5 4 1 5 4 3 4 4 9 9 6 8 9 5 10 11 18 25 19 11 9 6 13 16 23 20 21 32 32 35 36 35 33 33 31
2 3 3 10 7 7 6 4 3 2 2 3 5 3 3 6 8 7 9 4 5 7 7 6 8 12 18 15 15 9 10 15 10 18 21 26 35 32 34 37 37 36 35 33
7 3 5 5 5 4 7 7 4 5 2 2 2 5 5 6 8 4 4 5 5 5 6 5 6 11 14 18 17 19 8 8 9 12 24 35 36 38 36 35 38 37 37 37
5 3 2 2 5 3 3 7 8 3 6 5 7 9 4 5 7 5 5 3 5 6 7 8 7 5 6 11 14 15 13 12 6 11 20 36 38 38 36 34 32 30 36 38
3 1 3 8 7 9 5 8 6 4 6 9 13 8 4 3 6 5 5 6 6 6 7 7 5 3 3 4 11 16 13 12 15 19 21 18 18 19 35 36 35 37 35 38
3 4 3 4 5 6 5 7 7 6 7 8 5 6 5 5 6 5 6 6 5 3 3 5 5 8 10 6 7 10 14 17 17 17 22 22 17 17 18 18 36 38 39 37
4 4 3 3 4 2 5 3 16 16 10 9 8 6 5 3 3 10 6 5 6 5 6 7 9 14 13 12 14 11 14 19 24 22 18 17 17 18 19 17 18 16 23 28
4 5 3 3 3 4 5 7 4 3 3 3 6 7 6 5 6 4 8 6 5 6 7 7 14 13 14 16 18 19 15 15 16 24 26 19 15 16 21 22 21 18 11 7
6 6 5 3 3 4 2 6 5 4 1 4 9 6 7 5 3 4 6 4 5 11 15 18 24 16 13 15 18 20 21 20 20 22 26 25 18 14 17 21 21 20 12 11
3 3 5 2 3 1 3 3 2 2 5 2 5 4 3 2 5 5 6 6 7 10 15 20 17 18 21 24 21 17 21 23 26 25 24 25 27 19 16 17 18 19 19 18
4 4 3 2 2 3 2 3 0 5 1 4 3 2 1 3 4 5 7 8 11 15 21 24 23 26 26 19 16 19 23 27 24 24 27 28 27 27 23 20 18 18 20 20
3 5 4 5 5 4 3 4 3 3 3 1 2 3 3 5 6 8 7 8 11 16 20 26 23 22 30 19 24 24 31 29 30 30 32 31 30 28 27 25 21 21 21 22
5 1 3 3 6 6 7 4 4 2 1 4 4 5 5 6 7 7 8 8 8 19 20 26 24 21 22 27 29 29 28 31 29 29 31 32 30 28 30 30 23 21 21 17
4 3 2 3 4 2 4 3 2 3 3 4 6 6 7 7 9 8 7 8 13 19 22 25 20 20 23 28 29 31 32 29 28 27 27 28 28 26 26 28 23 20 23 19
0 3 3 4 5 5 5 6 6 7 6 7 4 7 8 5 8 7 9 16 18 17 22 19 19 23 28 27 27 30 30 27 27 25 24 24 24 23 24 25 28 21 22 24
Wind_Direction
286 86 233 238 199 235 256 30 303 238 200 165 217 238 206 201 201 173 183 178 184 180 190 187 185 181 180 187 191 194 195 201 203 200 197 192 200 211 205 204 203 198 197 203
358 243 249 237 260 231 321 313 294 296 218 127 186 262 243 196 209 182 184 185 186 172 171 188 187 179 181 184 190 191 198 200 202 199 195 193 196 202 209 208 205 208 204 206
203 249 256 239 260 72 313 267 282 233 344 327 162 324 335 217 198 177 195 187 184 181 172 183 187 187 181 182 188 191 194 201 200 201 196 195 196 207 213 212 207 209 202 207
223 261 222 234 234 115 314 206 271 236 63 262 88 280 317 244 194 198 181 187 187 185 182 173 171 178 181 187 190 194 196 201 201 201 196 197 198 203 217 215 203 199 193 202
259 300 286 152 205 131 242 255 67 74 104 50 93 90 264 8 247 226 199 191 191 186 178 183 178 179 182 183 185 192 197 199 201 202 201 200 204 213 218 220 213 205 197 202
245 248 221 211 245 195 254 29 37 36 49 17 14 122 298 203 217 268 220 193 188 183 185 190 183 173 181 184 182 187 195 199 202 203 205 207 209 211 214 218 212 211 214 212
328 272 252 176 92 342 83 53 351 2 2 233 318 64 250 283 321 73 70 59 48 188 179 176 174 170 181 184 185 188 194 196 203 204 207 210 213 213 217 215 215 216 219 214
247 334 161 213 184 184 204 146 158 284 209 264 347 40 3 75 85 69 74 77 60 38 35 3 266 183 182 194 186 186 192 197 203 207 210 213 212 215 222 226 225 223 223 218
41 336 1 159 178 130 257 298 193 136 320 61 328 342 143 39 47 51 63 69 82 60 51 9 318 305 302 203 201 193 194 196 203 210 213 215 218 215 222 227 231 229 229 228
312 28 345 309 11 4 115 198 34 12 86 53 302 322 246 26 37 47 55 77 84 100 110 189 328 337 293 322 209 209 207 205 206 208 211 216 215 217 220 222 229 231 232 231
67 70 300 26 28 330 356 1 25 109 137 151 184 261 226 200 146 93 87 78 101 88 100 96 54 28 24 73 202 194 194 202 210 209 220 229 221 221 224 225 228 232 234 234
7 123 335 244 272 188 108 26 79 108 287 33 135 272 233 59 76 108 64 62 50 68 92 76 59 69 43 37 46 9 328 265 221 223 208 251 253 228 227 230 230 230 232 233
2 26 20 341 359 4 51 360 40 129 80 352 121 248 17 92 77 80 112 124 98 82 60 67 61 64 56 52 45 16 268 303 327 308 315 278 265 254 232 231 233 234 232 232
84 98 143 171 221 238 325 344 9 109 95 207 200 124 65 98 108 109 94 91 75 68 96 93 77 68 51 45 33 65 86 305 307 258 285 273 265 254 244 239 233 233 235 232
104 81 43 198 240 355 292 332 321 288 219 154 177 125 145 134 145 161 172 174 80 29 31 43 60 81 79 36 32 30 40 32 8 308 299 278 250 253 250 248 239 237 233 234
14 208 65 349 346 8 324 320 306 52 73 78 115 104 163 131 80 83 124 102 84 56 31 13 21 70 69 60 30 359 1 11 349 346 351 343 349 282 260 254 245 238 232 231
98 116 74 291 334 350 23 326 64 55 33 134 130 151 142 84 86 99 124 100 101 92 34 354 336 332 333 341 347 348 340 339 342 344 345 351 345 334 325 300 251 239 230 228
131 104 107 222 26 17 225 14 86 81 52 51 79 84 77 122 113 84 55 73 32 9 351 331 325 323 316 311 315 323 331 330 328 324 328 337 341 341 339 331 332 342 263 248
162 118 98 133 170 279 358 2 21 86 27 47 81 48 28 42 89 72 36 26 10 353 329 316 331 335 346 347 333 319 311 314 314 317 314 312 320 328 327 330 333 326 301 274
76 87 119 113 146 231 226 306 348 106 63 4 97 88 85 56 66 284 321 341 341 339 332 328 327 314 324 330 327 328 329 322 314 311 310 298 298 305 316 324 330 323 307 269
46 32 144 160 196 279 224 305 9 97 218 145 99 110 65 80 194 232 283 308 297 299 307 314 316 307 308 311 310 310 311 300 298 302 310 308 293 288 296 306 316 319 293 279
137 133 213 85 127 238 303 29 110 203 140 115 68 76 279 239 271 273 285 277 285 290 297 300 300 296 298 296 298 303 304 301 297 300 301 301 296 290 290 293 296 303 299 271
52 178 175 157 211 230 359 105 62 130 137 177 234 253 217 254 252 266 258 262 261 270 279 289 283 284 293 278 295 291 294 293 294 295 292 285 286 284 290 288 286 291 289 273
320 126 109 78 13 105 88 89 90 74 350 303 287 270 269 264 268 257 259 262 259 272 273 283 280 278 278 293 292 291 288 291 288 288 285 282 285 280 279 278 278 278 276 259
210 32 71 58 344 184 64 61 300 329 313 289 281 266 268 263 272 264 266 270 272 271 274 279 274 282 286 295 292 293 289 288 282 282 277 275 274 275 276 277 271 272 284 278
30 178 123 198 231 162 255 308 336 348 321 306 309 313 305 296 284 283 290 301 297 285 288 286 287 289 286 290 292 293 289 283 280 274 270 266 268 269 268 272 275 267 279 288